Regional Weather Roundup
Issued by NWS Northern Indiana

Home | Current Version | Previous Version | Text Only | Print | Product List | Glossary Off
Versions: 1 2 3 4 5 6 7 8 9 10 11 12 13 14 15 16 17 18 19 20 21 22 23 24 25 26 27 28 29 30 31 32 33 34 35 36 37 38 39 40 41 42 43 44 45 46 47 48 49 50

000
ASUS43 KIWX 171500
RWRIWX

KIWX WEATHER ROUNDUP
NATIONAL WEATHER SERVICE NORTHERN INDIANA
1100 AM EDT THU APR 17 2014

NOTE: "FAIR" INDICATES FEW OR NO CLOUDS BELOW 12,000 FEET WITH NO
SIGNIFICANT WEATHER AND/OR OBSTRUCTIONS TO VISIBILITY.

* THESE STATIONS ARE NOT UNDER NWS QUALITY CONTROL. THEY ALSO MAY NOT
  REPORT WEATHER SUCH AS PRECIPITATION OR FOG.

INZ001>027-171600-
NORTHERN INDIANA

CITY           SKY/WX    TMP DP  RH WIND       PRES   REMARKS
GARY*          MOSUNNY   54  30  40 S14G25    30.19R
VALPARAISO     SUNNY     53  28  38 SW18G30   30.21S
SOUTH BEND     PTSUNNY   54  27  35 S15       30.23S
ELKHART*       SUNNY     52  27  37 S12G20    30.23F
GOSHEN         SUNNY     54  29  38 S18       30.24S
MONTICELLO*    SUNNY     55  32  42 S13G18    30.23R
ANGOLA*        SUNNY     46  32  57 S7        30.27S
FORT WAYNE     PTSUNNY   57  30  35 SW14      30.28F
PERU/GRISSOM   SUNNY     55  32  41 SW15      30.26R

$$
INZ028>050-171600-
CENTRAL INDIANA

CITY           SKY/WX    TMP DP  RH WIND       PRES   REMARKS
LAFAYETTE      SUNNY     55  29  36 SW9       30.24R
KOKOMO*        SUNNY     54  34  47 S16       30.27R
MUNCIE*        SUNNY     56  31  38 SW13      30.28S
INDIANAPOLIS   PTSUNNY   54  32  43 S12       30.30R

$$
MIZ043>046-050>051-056>058-064>065-071>073-077>080-171600-
SOUTHWEST LOWER MICHIGAN

CITY           SKY/WX    TMP DP  RH WIND       PRES   REMARKS
BATTLE CREEK   MOSUNNY   50  26  39 S15       30.25F
BENTON HARBOR  PTSUNNY   52  28  39 S16       30.20S
COLDWATER*     SUNNY     49  27  41 SE10      30.26F
HILLSDALE*     SUNNY     47  26  43 S9        30.28S
HOLLAND        MOSUNNY   51  29  42 SE16G22   30.20F
GRAND RAPIDS   PTSUNNY   50  27  40 S13       30.23F
KALAMAZOO      MOSUNNY   51  26  37 S15G21    30.24S
STURGIS*       SUNNY     52  28  40 S14       30.24F
THREE RIVERS*  FAIR      52  27  38 S14       30.25S

$$
OHZ001>008-015>018-024>025-171600-
NORTHWEST OHIO

CITY           SKY/WX    TMP DP  RH WIND       PRES   REMARKS
DEFIANCE       SUNNY     51  30  44 S9        30.31S
FINDLAY        SUNNY     52  31  44 S10       30.32R
TOLEDO EXPRESS SUNNY     50  28  42 S12       30.32S
TOLEDO METCALF SUNNY     51  28  41 S12       30.34R
LIMA           SUNNY     54  32  43 S10       30.32R

$$
&&



USA.gov is the U.S. government's official web portal to all federal, state and local government web resources and services.